Moab, UT

9:35 AM MDT on August 28, 2016 (GMT -0600)
Canyonlands

Weather History for KCNY - April, 2014

Change the Weather History Date:

Tuesday, April 8, 2014

  Actual Average Record
Temperature  
Mean Temperature 56 °F 50 °F  
Max Temperature 73 °F 65 °F 85 °F (1989)
Min Temperature 38 °F 36 °F 15 °F (1928)
Degree Days  
Heating Degree Days 9 15  
Month to date heating degree days 127 124  
Since 1 July heating degree days 5434 5172  
Cooling Degree Days 0 0  
Month to date cooling degree days 0 0  
Year to date cooling degree days 0 0  
Growing Degree Days 6 (Base 50)    
Moisture  
Dew Point 20 °F    
Average Humidity 30    
Maximum Humidity 48    
Minimum Humidity 12    
Precipitation  
Precipitation 0.00 in 0.02 in 0.30 in (1935)
Month to date precipitation 0.01 0.16  
Year to date precipitation 0.65 2.09  
Sea Level Pressure  
Sea Level Pressure 30.17 in    
Wind  
Wind Speed 3 mph (SW)    
Max Wind Speed 9 mph    
Max Gust Speed 14 mph    
Visibility 10 miles    
Events      
T = Trace of Precipitation, MM = Missing Value Source: NWS Daily Summary

Daily Weather History Graph

Daily Weather History Graph

Search for Another Location

Airport or City:

Trip Planner

Search our weather history database for the weather conditions in past years. The results will help you decide how hot, cold, wet, or windy it might be!

Date:

Astronomy

Apr. 08, 2014 Rise Set
Actual Time 6:52 AM MDT 7:49 PM MDT
Civil Twilight 6:25 AM MDT 8:16 PM MDT
Nautical Twilight 5:53 AM MDT 8:48 PM MDT
Astronomical Twilight 5:20 AM MDT 9:22 PM MDT
Moon 1:49 PM MDT (4/8) 3:04 AM MDT (4/8)
Length of Visible Light 13h 50m
Length of Day
12h 56m
Waxing Gibbous, 63% of the Moon is Illuminated
Apr 8
Waxing Gibbous
Apr 15
Full
Apr 22
Last Quarter
Apr 29
New
May 6
First Quarter

Hourly Weather History & Observations

Time (MDT) Temp. Windchill Dew Point Humidity Pressure Visibility Wind Dir Wind Speed Gust Speed Precip Events Conditions
12:53 AM 48.9 °F - 21.0 °F 33% 30.18 in 10.0 mi Calm Calm - N/A   Clear
1:53 AM 46.0 °F - 21.0 °F 37% 30.19 in 10.0 mi Calm Calm - N/A   Clear
2:53 AM 42.1 °F 40.2 °F 21.0 °F 43% 30.19 in 10.0 mi West 3.5 mph - N/A   Clear
3:53 AM 44.1 °F 40.8 °F 21.0 °F 40% 30.19 in 10.0 mi WSW 5.8 mph - N/A   Clear
4:53 AM 42.1 °F 39.2 °F 21.9 °F 45% 30.20 in 10.0 mi West 4.6 mph - N/A   Clear
5:53 AM 39.0 °F 34.8 °F 21.0 °F 49% 30.22 in 10.0 mi West 5.8 mph - N/A   Clear
6:53 AM 42.1 °F 40.2 °F 21.9 °F 45% 30.22 in 10.0 mi SW 3.5 mph - N/A   Clear
7:53 AM 44.1 °F - 23.0 °F 43% 30.25 in 10.0 mi Calm Calm - N/A   Clear
8:53 AM 52.0 °F - 24.1 °F 34% 30.25 in 10.0 mi SE 5.8 mph - N/A   Clear
9:53 AM 55.9 °F - 25.0 °F 30% 30.25 in 10.0 mi Calm Calm - N/A   Clear
10:53 AM 59.0 °F - 25.0 °F 27% 30.24 in 10.0 mi East 3.5 mph - N/A   Clear
12:53 PM 64.0 °F - 23.0 °F 21% 30.21 in 10.0 mi Variable 3.5 mph - N/A   Clear
1:53 PM 66.9 °F - 21.9 °F 18% 30.19 in 10.0 mi Variable 4.6 mph - N/A   Clear
2:53 PM 68.0 °F - 19.9 °F 16% 30.17 in 10.0 mi WSW 5.8 mph - N/A   Clear
3:53 PM 70.0 °F - 19.0 °F 14% 30.13 in 10.0 mi ESE 3.5 mph - N/A   Clear
4:53 PM 72.0 °F - 17.1 °F 12% 30.11 in 10.0 mi NNW 5.8 mph - N/A   Clear
5:53 PM 72.0 °F - 16.0 °F 12% 30.11 in 10.0 mi Calm Calm - N/A   Clear
6:53 PM 71.1 °F - 16.0 °F 12% 30.08 in 10.0 mi Calm Calm - N/A   Clear
7:53 PM 64.9 °F - 18.0 °F 16% 30.09 in 10.0 mi SE 5.8 mph - N/A   Clear
8:53 PM 60.1 °F - 16.0 °F 18% 30.10 in 10.0 mi West 3.5 mph - N/A   Clear
9:53 PM 57.0 °F - 17.1 °F 21% 30.10 in 10.0 mi WSW 3.5 mph - N/A   Clear
10:53 PM 54.0 °F - 17.1 °F 23% 30.09 in 10.0 mi Calm Calm - N/A   Clear
11:53 PM 51.1 °F - 16.0 °F 25% 30.09 in 10.0 mi Calm Calm - N/A   Clear